Flag for Switzerland Weather past 2 weeks in Dübendorf, Zurich, Switzerland

Now
46 °F

Cool.


Feels Like: 41 °F
Forecast: 31 / 54 °F
Wind: 8 mph from West

Location: Zurich Town / Ville.

Current Time: Mar 27, 2015 at 11:58:15 AM

Latest Report: Mar 27, 2015 at 11:00 AM


Visibility: N/A

Pressure: 30.14 "Hg

Humidity: 73%

Dew point: 38 °F

Location of DübendorfLocation

Historic Weather in Dübendorf — Graph

°F

Dübendorf temperature yesterday

Maximum temperature yesterday: 42 °F (at 5:00 PM)
Minimum temperature yesterday: 38 °F (at 5:00 AM)
Average temperature yesterday: 40 °F

Past Weeks' High & Low Weather Summary

 TemperatureHumidityPressure
High62 °F (Mar 18, 2:40 PM)97% (Mar 22, 1:00 AM)30.39 "Hg (Mar 22, 1:00 AM)
Low30 °F (Mar 13, 7:00 AM)34% (Mar 24, 5:00 PM)29.59 "Hg (Mar 25, 2:00 PM)
Average44 °F69%30.07 "Hg
* Reported Mar 12 10:00 AM — Mar 27 10:00 AM, Dübendorf, Weather by CustomWeather, © 2015

Note: Actual official high and low records may vary slightly from our data, if they occured in-between our weather recording intervals... More about our weather records

Advertising

Dübendorf weather history for previous 24 hours

 ConditionsComfort  
Time TempWeatherWind HumidityBarometerVisibility
10:00 AM
Fri, Mar 27
43 °FQuite cool.6 mph82%30.14 "HgN/A
9:00 AM40 °FQuite cool.3 mph90%30.13 "HgN/A
8:00 AM40 °FChilly.7 mph90%30.11 "HgN/A
7:00 AM40 °FOvercast.7 mph92%30.08 "HgN/A
6:00 AM40 °FQuite cool.5 mph86%30.05 "HgN/A
5:00 AM40 °FChilly.8 mph89%30.03 "HgN/A
3:00 AM39 °FChilly.6 mph91%30.02 "HgN/A
2:00 AM39 °FChilly.10 mph91%30.01 "HgN/A
12:00 AM41 °FQuite cool.10 mph82%29.97 "HgN/A
11:00 PM
Thu, Mar 26
42 °FQuite cool.9 mph78%29.94 "HgN/A
9:00 PM41 °FQuite cool.9 mph86%29.93 "HgN/A
8:00 PM42 °FQuite cool.3 mph83%29.91 "HgN/A
7:00 PM42 °FOvercast.3 mph83%29.90 "HgN/A
6:00 PM42 °FQuite cool.5 mph80%29.90 "HgN/A
5:00 PM42 °FQuite cool.5 mph77%29.88 "HgN/A
4:00 PM42 °FQuite cool.5 mph82%29.88 "HgN/A
3:00 PM42 °FQuite cool.7 mph84%29.87 "HgN/A
2:00 PM41 °FQuite cool.5 mph85%29.87 "HgN/A
1:00 PM41 °FOvercast.5 mph86%29.87 "HgN/A
12:00 PM41 °FQuite cool.5 mph89%29.87 "HgN/A
11:00 AM40 °FChilly.5 mph89%29.89 "HgN/A
Weather by CustomWeather, © 2015

See weather overviewHow to use our weather pages